Location: Cwrt-newydd
(52.1000°N, 4.2167°W)
Time: 10:08:00
(UTC+00:00)

Daily predictions for brighter satellites

Satellite Brightness Start Highest point End
(mag) Time Altitude Azimuth Time Altitude Azimuth Time Altitude Azimuth
STARLINK-1078 4.0 19:15:52 10° WNW 19:19:49 55° SSW 19:23:45 10° SE
ADEOS Rocket 3.3 19:12:49 10° NNE 19:19:53 88° WNW 19:26:08 10° SSW
Cosmos 2237 Rocket 2.2 19:16:15 10° SSW 19:21:49 68° ESE 19:27:26 10° NE
Cosmos 1805 3.2 19:18:20 10° S 19:22:13 66° E 19:26:06 10° NNE
STARLINK-1106 3.7 19:18:04 10° W 19:22:14 84° N 19:26:24 10° E
Cosmos 1302 Rocket 4.2 19:17:44 10° NNW 19:22:54 54° ENE 19:28:06 10° SE
STARLINK-1201 4.0 19:21:18 10° SSW 19:24:10 29° SSE 19:27:03 10° E
STARLINK-1108 4.1 19:20:24 10° WNW 19:24:20 52° SSW 19:28:16 10° SE
Cosmos 2278 Rocket 3.5 19:19:49 10° NW 19:25:10 43° WSW 19:30:28 10° S
CZ-2C R/B 3.9 19:23:03 10° NE 19:26:29 18° E 19:29:54 10° SE
STARLINK-1112 3.6 19:23:04 10° W 19:27:14 86° N 19:31:24 10° E
STARLINK-1066 4.4 19:25:52 10° W 19:28:42 30° SSW 19:31:31 10° SSE
STARLINK-1071 4.2 19:24:56 10° WNW 19:28:50 50° SSW 19:32:44 10° SE
STARLINK-1081 4.4 19:26:20 10° W 19:29:08 30° SSW 19:31:55 10° SSE
STARLINK-1209 3.4 19:26:42 10° SW 19:29:25 35° SSE 19:32:07 10° E
Cosmos 1269 Rocket 4.5 19:24:32 10° S 19:29:27 40° ESE 19:34:22 10° NE
STARLINK-1070 4.4 19:26:48 10° W 19:29:35 29° SSW 19:32:21 10° SSE
STARLINK-1124 4.3 19:25:49 10° WNW 19:29:50 50° SSW 19:33:51 10° SE
STARLINK-1069 4.4 19:27:12 10° W 19:30:01 30° SSW 19:32:48 10° SSE
STARLINK-1228 3.4 19:27:42 10° SW 19:30:22 35° SSE 19:33:03 10° E
STARLINK-1085 4.4 19:27:39 10° W 19:30:28 29° SSW 19:33:15 10° SSE
STARLINK-1086 4.5 19:28:10 10° W 19:30:56 29° SSW 19:33:41 10° SSE
STARLINK-1095 4.5 19:28:36 10° W 19:31:22 29° SSW 19:34:07 10° SSE
STARLINK-1077 4.5 19:29:03 10° W 19:31:48 29° SSW 19:34:33 10° SSE
STARLINK-1128 3.6 19:28:04 10° WNW 19:32:14 88° NNE 19:36:15 11° ESE
STARLINK-1075 4.5 19:29:31 10° W 19:32:16 28° SSW 19:35:01 10° SSE
Meteor 1-24 Rocket 3.7 19:26:39 10° NNW 19:32:17 88° E 19:37:41 10° SSE
STARLINK-1093 4.5 19:29:55 10° W 19:32:43 29° SSW 19:35:29 10° SSE
SeaSat 1 3.3 19:28:16 10° NNE 19:33:08 56° NW 19:37:56 10° SW
Cosmos 1553 Rocket 4.1 19:27:14 10° SSW 19:33:19 82° WNW 19:39:27 10° N
STARLINK-1110 4.3 19:29:28 10° WNW 19:33:20 47° SSW 19:37:13 10° SE
SL-8 R/B 4.0 19:28:49 10° WSW 19:33:29 55° S 19:38:02 11° E
CZ-4 R/B 4.2 19:32:55 10° SW 19:35:55 21° W 19:38:57 10° NW
ARGOS 3.2 19:30:50 10° SSE 19:36:12 72° ENE 19:41:36 10° NNW
STARLINK-1113 3.6 19:33:03 10° WNW 19:37:13 90° NW 19:41:02 12° ESE
MOS 1 4.3 19:34:53 10° SSE 19:40:32 83° ENE 19:46:14 10° NNW
STARLINK-1119 3.6 19:38:01 10° WNW 19:42:11 88° SSW 19:45:48 13° ESE
STARLINK-1122 4.4 19:38:38 10° WNW 19:42:28 43° SSW 19:46:18 10° SE
Cosmos 1470 3.5 19:39:05 10° SSE 19:42:32 32° E 19:46:02 10° NNE
STARLINK-1241 4.3 19:40:06 10° SSW 19:43:43 32° SE 19:47:06 11° E
STARLINK-1233 3.5 19:40:54 10° SW 19:43:50 38° SSE 19:46:21 13° E
STARLINK-1212 3.5 19:41:21 10° SW 19:44:17 38° SSE 19:46:46 13° E
STARLINK-1105 3.5 19:41:47 10° SW 19:44:43 38° SSE 19:47:13 13° E
STARLINK-1206 3.5 19:42:17 10° SW 19:45:12 38° SSE 19:47:38 14° E
ISS -3.8 19:42:08 10° W 19:45:30 80° S 19:48:11 15° E
STARLINK-1247 3.4 19:42:42 10° SW 19:45:39 38° SSE 19:48:03 14° E
ATLAS CENTAUR R/B 3.8 19:42:41 10° WNW 19:46:04 21° NNW 19:49:17 10° NNE
STARLINK-1227 3.4 19:43:07 10° SW 19:46:04 39° SSE 19:48:31 14° E
STARLINK-1218 3.4 19:43:36 10° SW 19:46:32 39° SSE 19:48:55 14° E
Cosmos 2315 Rocket 4.2 19:40:48 10° SSE 19:46:53 53° E 19:53:03 10° NNE
STARLINK-1226 3.4 19:44:04 10° SW 19:47:00 39° SSE 19:49:23 14° E
STARLINK-1114 3.6 19:43:01 10° WNW 19:47:11 85° SSW 19:50:36 15° ESE
SL-08 RB Rocket 3.7 19:42:50 10° SSE 19:47:17 64° ENE 19:51:51 10° N
STARLINK-1254 3.4 19:44:27 10° SW 19:47:25 40° SSE 19:49:48 14° E
STARLINK-1215 3.4 19:44:57 10° SW 19:47:54 40° SSE 19:50:14 14° E
STARLINK-1239 4.3 19:44:37 10° SSW 19:48:15 34° SSE 19:51:30 12° E
STARLINK-1231 3.4 19:45:23 10° SW 19:48:20 40° SSE 19:50:39 15° E
SJ-6B 2.9 19:44:18 10° SSE 19:48:22 77° ENE 19:52:31 10° NNW
MetOp-A 4.3 19:43:48 10° SE 19:49:00 55° ENE 19:54:15 10° N
Resurs 1-3 4.0 19:45:04 10° SE 19:49:14 44° ENE 19:53:26 10° N
STARLINK-1232 3.4 19:46:17 10° SW 19:49:14 40° SSE 19:51:32 15° E
STARLINK-1217 3.4 19:46:43 10° SW 19:49:41 41° SSE 19:51:58 15° E
STARLINK-1208 3.4 19:47:09 10° SW 19:50:07 41° SSE 19:52:25 15° E
Cosmos 1758 3.9 19:46:39 10° SSE 19:50:26 37° E 19:54:14 10° NNE
BREEZE-M DEB (TANK) 4.1 19:41:47 10° W 19:50:32 69° S 19:53:10 16° ESE
STARLINK-1229 3.3 19:47:37 10° SW 19:50:35 41° SSE 19:52:49 15° E
STARLINK-1271 3.3 19:48:04 10° SW 19:51:02 41° SSE 19:53:17 16° E
STARLINK-1270 3.3 19:48:31 10° SW 19:51:30 42° SSE 19:53:41 16° E
STARLINK-1154 3.3 19:48:57 10° SW 19:51:56 42° SSE 19:54:07 16° E
STARLINK-1130 (DARKSAT) 3.6 19:47:59 10° WNW 19:52:09 83° SSW 19:55:22 16° ESE
STARLINK-1197 3.3 19:49:51 10° SW 19:52:50 42° SSE 19:55:00 16° E
STARLINK-1240 4.2 19:49:09 10° SW 19:52:51 36° SSE 19:55:56 14° E
STARLINK-1189 3.3 19:50:18 10° SW 19:53:17 43° SSE 19:55:25 17° E
Cosmos 2369 Rocket 2.7 19:47:49 10° NNW 19:53:20 46° NE 19:57:50 15° ESE
STARLINK-1187 3.2 19:51:05 10° SW 19:54:07 47° SSE 19:56:20 16° E
STARLINK-1188 3.3 19:51:11 10° SW 19:54:10 43° SSE 19:56:17 17° E
STARLINK-1198 3.3 19:51:25 10° SW 19:54:24 43° SSE 19:56:31 17° E
STARLINK-1235 3.1 19:51:44 10° SW 19:54:48 51° SSE 19:57:05 16° E
CZ-2C R/B 3.1 19:49:49 10° SSE 19:54:52 80° WSW 19:59:44 10° NNW
COSMOS 2428 4.2 19:49:32 10° WSW 19:54:54 40° NW 20:00:18 10° NNE
NOSS 2-1 (C) 3.8 19:52:16 10° WSW 19:55:37 56° NW 19:59:32 10° NE
STARLINK-1199 3.2 19:53:06 10° SW 19:56:07 45° SSE 19:58:12 18° E
STARLINK-67 2.4 19:53:55 10° WSW 19:56:29 62° SSE 19:58:04 20° E
STARLINK-1191 3.2 19:53:34 10° SW 19:56:35 45° SSE 19:58:39 18° E
Resurs 01 Rocket 2.2 19:53:05 13° SE 19:56:38 39° ENE 20:00:45 10° N
STARLINK-1210 3.2 19:54:00 10° SW 19:57:01 45° SSE 19:59:05 18° E
STARLINK-1084 3.6 19:52:57 10° WNW 19:57:07 80° SSW 20:00:09 18° ESE
FREGAT/IRIS 3.2 19:54:32 10° S 19:57:12 51° W 19:59:53 10° NNW
STARLINK-1216 4.1 19:53:42 10° SW 19:57:27 38° SSE 20:00:23 15° E
STARLINK-1221 3.2 19:54:28 10° SW 19:57:29 46° SSE 19:59:33 18° E
STARLINK-1219 3.2 19:54:54 10° SW 19:57:56 46° SSE 19:59:57 18° E
STARLINK-1222 3.2 19:55:21 10° SW 19:58:22 46° SSE 20:00:22 19° E
STARLINK-1211 3.2 19:55:48 10° SW 19:58:50 46° SSE 20:00:48 19° E
Cosmos 1733 3.4 19:55:16 10° SSW 19:59:02 75° WNW 20:02:50 10° N
STARLINK-1214 3.2 19:56:15 10° SW 19:59:17 47° SSE 20:01:15 19° E
STARLINK-1245 3.2 19:56:44 10° SW 19:59:45 47° SSE 20:01:40 19° E
NOSS 2-1 (D) 3.9 19:56:29 10° WSW 19:59:50 52° NW 20:03:45 10° NE
STARLINK-1238 3.2 19:57:10 10° SW 20:00:11 47° SSE 20:02:07 19° E
STARLINK-1205 3.1 19:58:05 10° SW 20:01:07 47° SSE 20:02:58 20° E
Meteor 1-22 Rocket 4.1 19:55:58 10° SSW 20:01:16 86° WNW 20:06:36 10° NNE
STARLINK-1204 3.1 19:58:31 10° SW 20:01:32 48° SSE 20:03:23 20° E
STARLINK-1098 3.6 19:57:55 10° WNW 20:02:05 78° SSW 20:04:55 20° ESE
STARLINK-1237 4.0 19:58:18 10° SW 20:02:05 40° SSE 20:04:51 17° E
Cosmos 494 Rocket 4.0 19:58:21 10° SSW 20:03:31 87° WNW 20:08:46 10° NNE
SL-14 R/B 3.8 20:00:21 10° NNW 20:04:24 65° W 20:08:23 10° S
Meteor 1-21 Rocket 4.3 20:00:54 10° N 20:06:27 58° ENE 20:11:31 12° SSE
STARLINK-1202 3.9 20:02:52 10° SW 20:06:41 43° SSE 20:09:19 18° E
Cosmos 1726 3.4 20:06:30 20° ESE 20:07:05 21° E 20:09:58 10° NE
STARLINK-1123 3.6 20:02:56 10° WNW 20:07:05 75° SSW 20:09:44 21° ESE
SPOT 3 Rocket 3.5 20:01:57 10° SSE 20:07:10 81° ENE 20:12:25 10° NNW
Cosmos 1709 Rocket 4.2 20:02:54 10° NNW 20:09:09 78° W 20:15:17 10° S
IRIDIUM 103 4.4 20:04:16 10° N 20:09:26 56° E 20:14:33 10° SSE
CZ-4C R/B 3.9 20:05:20 10° W 20:10:32 34° NNW 20:16:43 10° NE
Cosmos 2228 4.4 20:11:03 19° E 20:11:25 19° E 20:14:28 10° NE
STARLINK-1246 3.9 20:07:54 10° SW 20:11:48 46° SSE 20:14:18 20° E
MOS 1 Rocket 4.0 20:06:59 10° NNE 20:11:52 40° E 20:16:54 10° SSE
STARLINK-1097 3.7 20:07:53 10° WNW 20:12:02 72° SSW 20:14:29 23° ESE
Cosmos 2219 Rocket 4.2 20:07:59 10° WSW 20:12:58 31° NW 20:17:57 10° NNE
Meteor 2-15 4.4 20:08:16 10° S 20:14:17 71° E 20:20:19 10° NNE
Cosmos 292 Rocket 3.8 20:11:10 10° NNW 20:15:56 63° ENE 20:19:07 21° SE
STARLINK-1099 3.7 20:12:53 10° WNW 20:17:01 69° SSW 20:19:17 25° ESE
Cosmos 1943 Rocket 2.1 20:13:11 10° NNW 20:18:45 79° ENE 20:22:51 19° SE
Cosmos 1943 4.4 20:19:28 20° ESE 20:19:34 20° E 20:23:38 10° NE
STARLINK-1224 3.7 20:16:42 10° SW 20:20:36 50° SSE 20:22:45 24° E
NOSS 3-4 (A) 4.3 20:14:20 10° NW 20:20:45 46° NNE 20:25:57 18° E
NOSS 3-4 (C) 4.4 20:14:26 10° NW 20:20:51 46° NNE 20:26:03 18° E
Cosmos 2074 Rocket 4.1 20:15:22 10° N 20:21:35 60° ENE 20:26:45 15° SSE
STARLINK-1104 3.7 20:17:52 10° WNW 20:22:00 66° SSW 20:24:04 28° SE
Cosmos 1455 Rocket 4.1 20:19:45 10° SSW 20:23:57 49° WNW 20:28:14 10° N
STARLINK-1225 3.7 20:21:22 10° SW 20:25:18 53° SSE 20:27:17 26° E
STARLINK-1203 3.5 20:23:00 10° SW 20:26:53 56° SSE 20:28:44 28° E
STARLINK-1144 3.8 20:22:50 10° WNW 20:26:57 63° SSW 20:28:50 30° SE
USA 186 4.0 20:24:01 10° SSW 20:27:02 28° W 20:30:01 10° NW
IRIDIUM 106 4.2 20:22:30 10° N 20:27:46 78° E 20:32:57 10° S
Cosmos 1437 3.1 20:25:25 10° N 20:28:19 39° ENE 20:28:32 38° E
Cosmos 1626 Rocket 4.2 20:24:39 10° NNW 20:29:01 57° W 20:33:17 10° S
STARLINK-1234 2.6 20:26:09 10° WSW 20:29:10 78° SSE 20:29:59 44° E
Cosmos 1626 3.8 20:25:54 10° NNW 20:29:18 34° W 20:32:40 10° SSW
STARLINK-1230 3.6 20:25:59 10° SW 20:29:55 56° SSE 20:31:44 29° E
STARLINK-1103 3.8 20:27:49 10° WNW 20:31:54 60° SSW 20:33:37 32° SE
Cosmos 1953 2.3 20:29:29 18° SSE 20:32:17 55° E 20:36:11 10° NNE
Meteor 2-10 4.4 20:28:33 13° SSE 20:33:03 47° E 20:38:21 10° NNE
Cosmos 2084 Rocket 3.5 20:28:37 10° NW 20:33:05 79° SW 20:35:19 29° SE
SPOT 1/Viking Rocket 4.3 20:32:06 26° ESE 20:34:13 36° ENE 20:38:57 10° N
STARLINK-1243 3.6 20:30:39 10° SW 20:34:37 59° SSE 20:36:16 32° E
SL-16 R/B 2.2 20:29:53 10° SSW 20:35:33 90° NW 20:41:16 10° NNE
Spot 2 Rocket 3.8 20:33:07 27° SE 20:35:42 51° ENE 20:40:40 10° N
Cosmos 1602 Rocket 4.1 20:32:10 10° NNW 20:36:37 61° W 20:40:59 10° S
STARLINK-1101 3.9 20:32:49 10° WNW 20:36:53 57° SSW 20:38:25 34° SE
STARLINK-1236 3.5 20:35:18 10° WSW 20:39:17 62° SSE 20:40:45 35° E
Aureole 2 Rocket 2.3 20:38:11 10° NNW 20:41:43 90° WSW 20:42:44 44° SSE
STARLINK-1102 3.9 20:37:47 10° WNW 20:41:51 54° SSW 20:43:11 36° SSE
Aureole 3 3.6 20:38:48 10° S 20:42:53 85° E 20:48:11 10° NNE
IGS 5A 4.1 20:42:14 33° E 20:43:02 37° ENE 20:46:53 10° N
DMSP B5D2-2 4.0 20:39:57 10° NNE 20:45:11 80° ESE 20:50:25 10° SSW
STARLINK-1111 4.0 20:42:46 10° WNW 20:46:48 51° SSW 20:47:58 38° SSE
H-2A R/B 3.9 20:43:12 10° SSW 20:47:47 29° W 20:52:17 10° NNW
ERBS 3.4 20:44:56 10° W 20:48:11 42° NNW 20:49:56 22° NE
STARLINK-1269 3.4 20:44:40 10° WSW 20:48:41 67° SSE 20:49:49 44° E
Terra 3.1 20:49:37 23° ENE 20:50:23 24° ENE 20:54:12 10° N
STARLINK-1073 4.1 20:47:46 10° WNW 20:51:46 48° SSW 20:52:45 39° SSE
CZ-2C R/B 4.2 20:47:25 10° N 20:52:10 65° WNW 20:56:50 10° SSW
Cosmos 1703 3.3 20:48:34 10° N 20:52:29 60° ENE 20:53:09 51° ESE
STARLINK-1200 3.4 20:49:22 10° WSW 20:53:23 70° SSE 20:54:21 49° E
ATLAS 2AS CENTAUR R/B 3.1 20:46:02 10° NW 20:53:47 62° NE 20:57:42 29° ESE
Cosmos 1726 Rocket 3.9 20:55:09 41° E 20:55:16 41° E 20:59:26 10° NNE
Cosmos 1825 Rocket 3.5 20:51:35 10° N 20:56:03 88° E 20:57:49 36° S
STARLINK-1121 4.1 20:52:45 10° WNW 20:56:44 46° SSW 20:57:32 40° S
Cosmos 1603 3.9 20:53:25 18° S 20:57:18 45° ESE 21:02:38 10° NE
Meteor 1-16 Rocket 4.1 20:54:16 22° S 20:57:39 63° E 21:03:04 10° NNE
STARLINK-1192 3.4 20:54:00 10° WSW 20:58:02 73° SSE 20:58:49 54° E
USA 234 3.1 20:52:50 10° ENE 20:59:24 73° SSE 21:05:56 10° SW
Cosmos 2327 Rocket 4.4 20:53:31 10° N 20:59:49 78° E 21:03:23 28° SSE
STARLINK-1201 2.9 20:56:55 10° WSW 21:00:05 83° WSW 21:00:05 83° WSW
STARLINK-1106 4.2 20:57:44 10° WNW 21:01:41 43° SSW 21:02:18 40° S
STARLINK-1244 3.4 20:58:47 10° WSW 21:02:50 76° SSE 21:03:26 61° E
MetOp-B 4.1 21:01:14 30° SSE 21:03:59 88° WSW 21:09:23 10° NNW
STARLINK-1209 3.5 21:01:12 10° W 21:03:28 49° W 21:03:28 49° W
STARLINK-1228 3.6 21:02:19 10° W 21:04:30 47° W 21:04:30 47° W
Cosmos 1758 Rocket 3.8 21:00:58 10° NNW 21:05:20 65° W 21:07:19 30° S
Cosmos 2237 Rocket 4.1 21:01:24 10° WSW 21:06:21 31° NW 21:11:21 10° NNE
STARLINK-1112 4.3 21:02:44 10° W 21:06:39 41° SSW 21:07:06 39° SSW
CZ-2C R/B 2.6 21:02:14 10° NNE 21:07:28 81° WNW 21:12:37 10° SSW
STARLINK-1138 3.4 21:03:29 10° WSW 21:07:32 79° SSE 21:07:58 68° ESE
Cosmos 1992 Rocket 4.4 21:02:58 10° NNW 21:08:06 58° WSW 21:10:43 28° S
COSMOS 2455 3.7 21:03:08 10° NNW 21:08:48 39° NE 21:11:09 29° E
Meteor 1-11 4.2 21:04:10 10° N 21:10:00 73° ENE 21:12:06 41° SSE
STARLINK-1128 4.4 21:07:45 10° W 21:11:37 38° SSW 21:11:54 38° SSW
Cosmos 1953 Rocket 3.5 21:07:13 10° N 21:11:42 87° E 21:12:43 54° SSE
STARLINK-1143 3.4 21:08:16 10° WSW 21:12:19 81° SSE 21:12:34 76° ESE
Cosmos 2184 Rocket 4.3 21:06:06 10° NNW 21:12:24 68° W 21:17:03 19° S
Iridium 4 Rocket 4.5 21:08:49 10° NNE 21:11:53 24° ENE 21:11:53 24° ENE
Cosmos 1461 4.1 21:10:11 10° NNW 21:14:16 34° NE 21:15:09 31° ENE
Cosmos 1295 Rocket 4.4 21:08:10 10° N 21:14:25 71° ENE 21:16:48 40° SSE
SL-8 R/B 4.0 21:11:06 10° W 21:15:41 47° SSW 21:16:00 46° S
STARLINK-1113 4.5 21:12:45 10° W 21:16:34 36° SSW 21:16:41 36° SSW
Cosmos 2251 Rocket 3.4 21:12:53 10° SSW 21:18:15 87° ESE 21:23:41 10° NNE
Meteor 2-17 Rocket 4.4 21:12:04 10° N 21:18:15 89° E 21:21:00 36° S
STARLINK-1233 4.1 21:16:23 10° W 21:18:31 40° W 21:18:31 40° W
STARLINK-1212 4.1 21:16:51 10° W 21:18:56 39° W 21:18:56 39° W
STARLINK-1105 4.1 21:17:17 10° W 21:19:23 39° W 21:19:23 39° W
STARLINK-1206 4.2 21:17:46 10° W 21:19:48 37° W 21:19:48 37° W
Cosmos 1656 Rocket 3.6 21:15:19 10° NNW 21:21:03 87° ENE 21:22:37 50° SSE
Cosmos 1606 Rocket 3.4 21:20:20 54° S 21:21:18 89° E 21:25:47 10° N
STARLINK-1247 4.2 21:18:13 10° W 21:20:14 36° W 21:20:14 36° W
STARLINK-1227 4.2 21:18:37 10° W 21:20:41 37° W 21:20:41 37° W
ISS -2.2 21:19:00 10° W 21:21:09 28° WSW 21:21:09 28° WSW
STARLINK-1218 4.3 21:19:07 10° W 21:21:05 35° W 21:21:05 35° W
STARLINK-1241 3.5 21:18:35 10° WSW 21:22:24 80° WSW 21:22:24 80° WSW
STARLINK-1226 4.3 21:19:35 10° W 21:21:33 35° W 21:21:33 35° W
STARLINK-1254 4.3 21:19:58 10° W 21:21:59 36° W 21:21:59 36° W
STARLINK-1215 4.4 21:20:29 10° W 21:22:24 34° W 21:22:24 34° W
STARLINK-1231 4.4 21:20:55 10° W 21:22:50 34° W 21:22:50 34° W
STARLINK-1232 4.4 21:21:50 10° W 21:23:42 33° W 21:23:42 33° W
STARLINK-1217 4.5 21:22:17 10° W 21:24:08 32° W 21:24:08 32° W
STARLINK-1208 4.4 21:22:42 10° W 21:24:36 33° W 21:24:36 33° W
ATLAS CENTAUR R/B 4.0 21:24:02 10° NNW 21:26:23 14° N 21:28:39 10° NE
STARLINK-1239 3.6 21:23:10 10° WSW 21:26:49 72° WSW 21:26:49 72° WSW
BREEZE-M DEB (TANK) 4.2 21:25:51 10° WSW 21:26:52 16° SW 21:26:52 16° SW
USA 245 4.2 21:27:47 42° S 21:29:30 70° WSW 21:35:23 10° NNW
ERS-1 Rocket 2.9 21:28:47 62° SE 21:29:30 74° ENE 21:34:33 10° NNW
STARLINK-1240 3.7 21:27:47 10° WSW 21:31:15 65° W 21:31:15 65° W
Resurs 01 Rocket 3.3 21:30:38 17° SW 21:33:13 29° W 21:37:06 10° NNW
Cosmos 2154 Rocket 4.2 21:26:59 10° NNW 21:33:20 73° W 21:36:22 33° S
Cosmos 2181 Rocket 4.4 21:33:10 42° E 21:33:21 42° E 21:39:11 10° NNE
SPOT 5 2.7 21:35:19 66° NE 21:35:19 66° NE 21:39:30 10° N
STARLINK-1216 3.9 21:32:25 10° WSW 21:35:43 58° W 21:35:43 58° W
Cosmos 1908 3.7 21:37:51 58° N 21:37:51 58° N 21:41:04 10° N
Cosmos 2369 Rocket 3.2 21:32:02 10° NW 21:37:20 40° WSW 21:39:38 28° SSW
SL-24 R/B 4.5 21:35:03 10° N 21:40:08 90° WNW 21:41:21 55° S
STARLINK-1237 4.1 21:37:05 10° W 21:40:12 52° W 21:40:12 52° W
Cosmos 1726 3.5 21:40:56 29° WSW 21:42:05 37° WNW 21:45:36 10° N
STARLINK-1202 4.3 21:41:43 10° W 21:44:39 47° W 21:44:39 47° W
Landsat 7 4.2 21:45:26 51° SW 21:46:12 59° W 21:50:56 10° NNW
Cosmos 921 Rocket 3.5 21:42:43 10° NNW 21:46:08 51° NNE 21:46:08 51° NNE
Cosmos 967 Rocket 4.4 21:41:02 10° SSW 21:47:27 75° SE 21:53:58 10° NE
Cosmos 2228 3.6 21:47:50 47° WSW 21:48:35 53° WNW 21:52:50 10° N
Cosmos 962 Rocket 4.4 21:43:08 10° NNW 21:49:23 84° W 21:50:56 54° S
Nadezhda 1 Rocket 4.3 21:50:49 22° SSW 21:55:08 65° WNW 22:01:31 10° N
SL-8 Rocket 3.9 21:49:20 10° N 21:55:40 78° E 21:56:35 65° SE
Cosmos 1340 Rocket 4.0 21:57:44 37° NNE 21:57:44 37° NNE 22:00:17 10° NNE
Cosmos 2058 4.2 21:55:54 10° N 21:58:26 33° NNE 21:58:26 33° NNE
CZ-4C R/B 4.0 21:55:10 10° NW 22:00:48 33° NNE 22:06:33 13° ENE
Cosmos 2058 Rocket 3.4 22:01:24 66° NW 22:01:24 66° NW 22:05:31 10° N
Cosmos 1943 Rocket 4.1 21:57:51 10° NW 22:01:53 21° WSW 22:04:25 16° SW
Cosmos 864 Rocket 4.4 21:56:12 10° N 22:02:29 69° ENE 22:02:57 66° ESE
Cosmos 2366 rocket 3.8 21:56:42 10° N 22:02:52 71° ENE 22:03:19 68° ESE
Cosmos 1943 3.2 22:01:06 45° SW 22:02:57 83° WNW 22:08:42 10° NNE
Mayak 1.0 22:05:51 10° NNE 22:06:55 16° NE 22:06:55 16° NE
NOSS 3-4 (A) 3.8 22:05:17 10° NW 22:12:09 72° SW 22:13:24 60° S
NOSS 3-4 (C) 3.8 22:05:23 10° NW 22:12:15 73° SW 22:13:29 61° S
SPOT 1/Viking Rocket 4.4 22:12:44 39° WSW 22:13:33 42° W 22:18:32 10° NNW
Cosmos 1959 Rocket 4.4 22:13:03 10° N 22:19:27 89° W 22:19:57 78° S
SL-16 R/B 4.3 22:15:49 10° W 22:20:27 25° NW 22:25:06 10° NNE
NOSS 3-3 (A) 4.1 22:17:31 10° SW 22:23:33 76° NW 22:30:29 10° NE
NOSS 3-3 (C) 4.1 22:17:37 10° SW 22:23:39 77° NW 22:30:35 10° NE
Cosmos 1697 Rocket 4.0 22:20:28 10° NNW 22:25:23 29° NE 22:26:03 28° NE
SL-08 R/B 4.4 22:20:15 10° N 22:26:15 72° ENE 22:26:15 72° ENE
Terra 2.4 22:28:29 52° WNW 22:28:29 52° WNW 22:32:32 10° NNW
Cosmos 1140 Rocket 4.4 22:36:41 41° NNE 22:36:41 41° NNE 22:40:04 10° NNE
USA 234 3.5 22:35:57 10° ENE 22:42:25 65° NNW 22:48:53 10° W
Cosmos 407 Rocket 4.1 22:44:53 53° N 22:44:53 53° N 22:49:02 10° NNE
ATLAS 2AS CENTAUR R/B 3.2 22:37:27 10° NW 22:44:41 48° WSW 22:45:08 47° SW
Cosmos 1821 Rocket 4.2 22:41:01 10° N 22:46:52 64° NE 22:46:52 64° NE
Cosmos 1980 Rocket 3.7 22:45:34 10° NNW 22:50:16 26° NE 22:50:54 26° NE
COSMOS 2455 3.2 22:49:08 10° NW 22:54:18 57° W 22:54:18 57° W
ATLAS CENTAUR R/B 3.8 23:03:24 10° NNW 23:05:26 20° N 23:05:26 20° N
Cosmos 1934 Rocket 4.4 23:02:28 10° N 23:08:00 56° NE 23:08:00 56° NE
Meteor 2-3 Rocket 4.4 23:17:34 10° N 23:22:06 52° NNE 23:22:06 52° NNE
Cosmos 1656 4.4 23:26:04 10° NNW 23:30:13 50° NW 23:30:13 50° NW
ATLAS 5 CENTAUR R/B 4.1 23:39:11 16° NE 23:39:11 16° NE 23:40:16 10° NE
Cosmos 2369 4.4 23:31:54 10° NNW 23:36:08 49° N 23:36:08 49° N
Mayak 1.1 23:41:37 10° N 23:43:29 21° NNW 23:43:29 21° NNW
CZ-4C R/B 3.2 23:43:59 10° NW 23:50:40 59° NE 23:51:42 54° ENE
